When you browse on this site, cookies collect data to enhance your experience and personalize the content and advertising you see.
Visit our Privacy Policy to learn more. By continuing to use the site, you agree to this use of cookies and data.
  • In United Kingdom
  • List of Countries
  • For 7 days
  • Water Temperature
  • Satellite Maps
  • Weather Map
  • Weather Widgets
  • user-avatar
    Login

    Hourly Weather Hardenberg

    Today, 17 June, Monday

    Time Temperature Precipitation Wind Pressure Humidity
    00:00 +14°C° 0 mm 2 mps 765 mmHg 91%
    01:00 +14°C° 0 mm 2 mps 765 mmHg 92%
    02:00 +14°C° 0 mm 2 mps 765 mmHg 92%
    03:00 +13°C° 0 mm 2 mps 765 mmHg 92%
    04:00 +15°C° 0 mm 2 mps 765 mmHg 89%
    05:00 +16°C° 0 mm 2 mps 765 mmHg 85%
    06:00 +17°C° 0 mm 2 mps 765 mmHg 82%
    07:00 +19°C° 0 mm 2 mps 765 mmHg 76%
    08:00 +21°C° 0 mm 3 mps 765 mmHg 70%
    09:00 +22°C° 0 mm 3 mps 765 mmHg 64%
    10:00 +24°C° 0 mm 3 mps 765 mmHg 61%
    11:00 +25°C° 0 mm 3 mps 764 mmHg 58%
    12:00 +25°C° 0 mm 3 mps 764 mmHg 55%
    13:00 +26°C° 0 mm 3 mps 764 mmHg 55%
    14:00 +26°C° 0 mm 3 mps 763 mmHg 56%
    15:00 +26°C° 0 mm 2 mps 763 mmHg 57%
    16:00 +25°C° 0 mm 2 mps 763 mmHg 60%
    17:00 +25°C° 0 mm 1 mps 762 mmHg 63%
    18:00 +25°C° 0 mm 1 mps 762 mmHg 67%
    19:00 +23°C° 0 mm 1 mps 762 mmHg 72%
    20:00 +21°C° 0 mm 1 mps 763 mmHg 78%
    21:00 +19°C° 0 mm 1 mps 763 mmHg 83%
    22:00 +18°C° 0 mm 1 mps 762 mmHg 86%
    23:00 +17°C° 0 mm 2 mps 762 mmHg 88%

    Tomorrow, 18 June, Tuesday

    Time Temperature Precipitation Wind Pressure Humidity
    00:00 +16°C° 0 mm 2 mps 762 mmHg 91%
    01:00 +16°C° 0 mm 2 mps 762 mmHg 91%
    02:00 +15°C° 0 mm 2 mps 762 mmHg 92%
    03:00 +15°C° 0 mm 2 mps 761 mmHg 92%
    04:00 +16°C° 0 mm 2 mps 761 mmHg 89%
    05:00 +17°C° 0 mm 2 mps 761 mmHg 85%
    06:00 +18°C° 0 mm 2 mps 761 mmHg 81%
    07:00 +19°C° 0 mm 2 mps 761 mmHg 77%
    08:00 +21°C° 0 mm 2 mps 761 mmHg 73%
    09:00 +23°C° 0 mm 2 mps 761 mmHg 68%
    10:00 +24°C° 0.1 mm 2 mps 761 mmHg 67%
    11:00 +24°C° 0.1 mm 2 mps 761 mmHg 65%
    12:00 +25°C° 0.1 mm 2 mps 760 mmHg 63%
    13:00 +25°C° 0.1 mm 2 mps 760 mmHg 63%
    14:00 +25°C° 0.1 mm 2 mps 760 mmHg 63%
    15:00 +26°C° 0.1 mm 2 mps 760 mmHg 62%
    16:00 +25°C° 0 mm 3 mps 759 mmHg 69%
    17:00 +22°C° 0 mm 3 mps 759 mmHg 75%
    18:00 +21°C° 0 mm 4 mps 759 mmHg 82%
    19:00 +20°C° 0.1 mm 4 mps 759 mmHg 85%
    20:00 +18°C° 0.1 mm 4 mps 759 mmHg 89%
    21:00 +17°C° 0.1 mm 3 mps 759 mmHg 92%
    22:00 +16°C° 0.2 mm 3 mps 759 mmHg 92%
    23:00 +16°C° 0.2 mm 3 mps 758 mmHg 92%

    Day after tomorrow, 19 June, Wednesday

    Time Temperature Precipitation Wind Pressure Humidity
    00:00 +14°C° 0.2 mm 3 mps 758 mmHg 91%
    01:00 +14°C° 0.3 mm 3 mps 757 mmHg 93%
    02:00 +15°C° 0.3 mm 2 mps 757 mmHg 94%
    03:00 +15°C° 0.3 mm 2 mps 757 mmHg 95%
    04:00 +17°C° 0.2 mm 2 mps 756 mmHg 94%
    05:00 +18°C° 0.2 mm 2 mps 756 mmHg 92%
    06:00 +19°C° 0.2 mm 2 mps 756 mmHg 91%
    07:00 +21°C° 0 mm 2 mps 755 mmHg 83%
    08:00 +24°C° 0 mm 3 mps 755 mmHg 76%
    09:00 +26°C° 0 mm 3 mps 755 mmHg 68%
    10:00 +27°C° 0 mm 3 mps 755 mmHg 66%
    11:00 +27°C° 0 mm 4 mps 755 mmHg 65%
    12:00 +28°C° 0 mm 4 mps 754 mmHg 63%
    13:00 +27°C° 0.7 mm 4 mps 754 mmHg 64%
    14:00 +27°C° 0.7 mm 5 mps 754 mmHg 65%
    15:00 +27°C° 0.7 mm 5 mps 753 mmHg 66%
    16:00 +26°C° 0.8 mm 4 mps 754 mmHg 70%
    17:00 +26°C° 0.8 mm 4 mps 754 mmHg 74%
    18:00 +25°C° 0.8 mm 3 mps 754 mmHg 78%
    19:00 +22°C° 0.4 mm 3 mps 754 mmHg 82%
    20:00 +20°C° 0.4 mm 4 mps 755 mmHg 86%
    21:00 +18°C° 0.4 mm 4 mps 755 mmHg 90%
    22:00 +16°C° 0 mm 5 mps 755 mmHg 91%
    23:00 +16°C° 0 mm 5 mps 755 mmHg 92%

    20 June, Thursday

    Time Temperature Precipitation Wind Pressure Humidity
    00:00 +15°C° 0 mm 5 mps 755 mmHg 93%
    01:00 +15°C° 0 mm 5 mps 756 mmHg 93%
    02:00 +15°C° 0 mm 4 mps 756 mmHg 93%
    03:00 +14°C° 0 mm 4 mps 757 mmHg 93%
    04:00 +15°C° 0 mm 4 mps 757 mmHg 91%
    05:00 +16°C° 0 mm 3 mps 757 mmHg 90%
    06:00 +16°C° 0 mm 3 mps 758 mmHg 88%
    07:00 +17°C° 0.1 mm 3 mps 758 mmHg 84%
    08:00 +18°C° 0.1 mm 2 mps 758 mmHg 80%
    09:00 +18°C° 0.1 mm 2 mps 759 mmHg 77%
    10:00 +19°C° 0.5 mm 2 mps 759 mmHg 76%
    11:00 +19°C° 0.5 mm 2 mps 759 mmHg 75%
    12:00 +20°C° 0.5 mm 2 mps 759 mmHg 74%
    13:00 +20°C° 0.4 mm 2 mps 759 mmHg 74%
    14:00 +20°C° 0.4 mm 2 mps 759 mmHg 75%
    15:00 +20°C° 0.4 mm 2 mps 759 mmHg 75%
    16:00 +19°C° 0.3 mm 2 mps 759 mmHg 79%
    17:00 +18°C° 0.3 mm 2 mps 759 mmHg 83%
    18:00 +17°C° 0.3 mm 2 mps 759 mmHg 87%
    19:00 +16°C° 0 mm 1 mps 759 mmHg 89%
    20:00 +16°C° 0 mm 1 mps 759 mmHg 90%
    21:00 +14°C° 0 mm 0 mps 760 mmHg 92%
    22:00 +14°C° 0 mm 1 mps 760 mmHg 92%
    23:00 +14°C° 0 mm 1 mps 760 mmHg 93%

    21 June, Friday

    Time Temperature Precipitation Wind Pressure Humidity
    00:00 +14°C° 0 mm 2 mps 760 mmHg 93%
    01:00 +13°C° 0 mm 2 mps 760 mmHg 91%
    02:00 +12°C° 0 mm 2 mps 760 mmHg 89%
    03:00 +12°C° 0 mm 2 mps 760 mmHg 88%
    04:00 +13°C° 0 mm 2 mps 760 mmHg 87%
    05:00 +13°C° 0 mm 3 mps 760 mmHg 87%
    06:00 +14°C° 0 mm 4 mps 761 mmHg 86%
    07:00 +15°C° 0 mm 4 mps 761 mmHg 80%
    08:00 +17°C° 0 mm 4 mps 761 mmHg 74%
    09:00 +19°C° 0 mm 4 mps 761 mmHg 67%
    10:00 +19°C° 0.2 mm 4 mps 761 mmHg 66%
    11:00 +20°C° 0.2 mm 4 mps 761 mmHg 65%
    12:00 +20°C° 0.2 mm 4 mps 761 mmHg 63%
    13:00 +20°C° 0.2 mm 4 mps 761 mmHg 62%
    14:00 +20°C° 0.2 mm 3 mps 762 mmHg 62%
    15:00 +20°C° 0.2 mm 3 mps 762 mmHg 61%
    16:00 +19°C° 0.1 mm 3 mps 762 mmHg 65%
    17:00 +19°C° 0.1 mm 3 mps 762 mmHg 70%
    18:00 +18°C° 0.1 mm 3 mps 762 mmHg 74%
    19:00 +16°C° 0 mm 2 mps 763 mmHg 78%
    20:00 +15°C° 0 mm 2 mps 763 mmHg 82%
    21:00 +13°C° 0 mm 1 mps 763 mmHg 86%
    22:00 +13°C° 0 mm 1 mps 763 mmHg 88%
    23:00 +12°C° 0 mm 1 mps 763 mmHg 89%

    22 June, Saturday

    Time Temperature Precipitation Wind Pressure Humidity
    00:00 +10°C° 0 mm 0 mps 763 mmHg 90%
    01:00 +10°C° 0 mm 0 mps 763 mmHg 91%
    02:00 +10°C° 0 mm 0 mps 763 mmHg 91%
    03:00 +10°C° 0 mm 0 mps 763 mmHg 92%
    04:00 +11°C° 0 mm 0 mps 763 mmHg 89%
    05:00 +14°C° 0 mm 1 mps 764 mmHg 85%
    06:00 +15°C° 0 mm 1 mps 764 mmHg 82%
    07:00 +16°C° 0 mm 1 mps 764 mmHg 75%
    08:00 +19°C° 0 mm 1 mps 764 mmHg 68%
    09:00 +20°C° 0 mm 1 mps 764 mmHg 61%
    10:00 +21°C° 0 mm 1 mps 763 mmHg 59%
    11:00 +20°C° 0 mm 2 mps 763 mmHg 57%
    12:00 +21°C° 0 mm 2 mps 763 mmHg 54%
    13:00 +21°C° 0.1 mm 2 mps 763 mmHg 56%
    14:00 +21°C° 0.1 mm 3 mps 763 mmHg 58%
    15:00 +21°C° 0.1 mm 3 mps 762 mmHg 59%
    16:00 +20°C° 0.1 mm 3 mps 762 mmHg 64%
    17:00 +20°C° 0.1 mm 3 mps 762 mmHg 69%
    18:00 +19°C° 0.1 mm 3 mps 762 mmHg 75%
    19:00 +18°C° 0 mm 4 mps 762 mmHg 78%
    20:00 +15°C° 0 mm 4 mps 762 mmHg 81%
    21:00 +14°C° 0 mm 4 mps 763 mmHg 84%
    22:00 +13°C° 0 mm 4 mps 762 mmHg 84%
    23:00 +12°C° 0 mm 4 mps 762 mmHg 84%
    Show more